Location: Vancouver
(49.2500°N, 123.1330°W)
Time: 16:05:28
(UTC-07:00)

AO-27 - Visible Passes

Search period start: 29 May 2016 00:00
Search period end: 08 June 2016 00:00
Orbit: 785 x 798 km, 98.8° (Epoch: 28 May)

Date Brightness Start Highest point End Pass type
(mag) Time Alt. Az. Time Alt. Az. Time Alt. Az.
29 May 9.6 03:12:18 10° NE 03:16:27 23° E 03:20:36 10° SE visible
30 May 10.1 02:44:32 10° ENE 02:47:05 13° E 02:49:36 10° ESE visible
30 May 7.8 04:22:06 10° NNE 04:27:22 86° ESE 04:32:37 10° SSW visible
31 May 8.5 03:53:11 10° NNE 03:58:17 50° E 04:03:22 10° S visible
01 Jun 9.3 03:24:32 10° NE 03:29:06 29° E 03:33:38 10° SSE visible
02 Jun 10.0 02:56:22 10° NE 02:59:47 17° E 03:03:10 10° SE visible
03 Jun 8.1 04:05:38 10° NNE 04:10:51 63° ESE 04:16:02 10° S visible
04 Jun 9.0 03:36:51 10° NNE 03:41:42 37° E 03:46:31 10° SSE visible
05 Jun 9.7 03:08:26 10° NE 03:12:26 22° E 03:16:25 10° SE visible
06 Jun 10.2 02:40:55 10° ENE 02:43:02 12° E 02:45:08 10° ESE visible
06 Jun 7.8 04:18:06 10° NNE 04:23:23 79° ESE 04:28:37 10° SSW visible
07 Jun 8.6 03:49:14 10° NNE 03:54:18 46° E 03:59:19 10° S visible
